OPS 4682 DEB, 38440

Orbit data source: Space-Track

OPS 4682 DEB, 38440 is space debris in LEO originally from a launch on Sat, 03 Apr 1965 UTC launched from the Air Force Western Test Range (AFWTR). Debris objects in space refer to the collection of defunct objects orbiting the Earth. Examples of debris include non-operational satellites, rocket bodies, and fragments generated from explosions, collisions, or faulty payload assembly.

Loading next visibility...
Identifier
38440, 1965-027EV
Orbit
LEO
Country
Flag of USUS
Related business
Manufacturer
Unknown
Mission
Spacecraft
Bus & Motor
Unknown
Mass
Unknown
Launch date (UTC)
1965-04-03 (61 years ago)
Launch vehicle
Unknown
Launch site
Air Force Western Test Range (AFWTR)
Object type
Payload
Rocket body
Debris
Shape & HBR
Unknown shape, 0.1 m
Radar Cross Section
Small (<0.1 m²)

Expand to show TLE details & history
Last TLE update: 5 days ago

TLE from 5 days ago
0 OPS 4682 DEB
1 38440U 65027EV  25298.19721809  .00000979  00000-0  32765-2 0  9992
2 38440  90.2548  11.7663 0035955 284.4053  75.3079 12.98799936586458
Epoch: 2025-10-25T04:43Z
TLE epoch observation values (Epoch: 2025-10-25T04:43:59.642Z)
Latitude
-0.00005°
Longitude
-93.06343°
Altitude
1,262.794 km
Speed
7.227 km/s
True Right ascension
00h 47m 03s
True Declination
0° 00' 00"
Sunlit
Object was in full shadow at epoch
Visualization orbit readout
Latitude
Unknown
Longitude
Unknown
Altitude
Unknown
Speed
Unknown
Apparent Right ascension
Unknown
Apparent Declination
Unknown
Sunlit
N/A
Visualization observer readout
Local Sidereal Time
22:14:13
Azimuth
Unknown
Elevation
Unknown
Doppler factor
Unknown
Orbital elements
Apogee altitude
1,291.398 km
Perigee altitude
1,236.444 km
Semi-major axis
7,642.058 km
Eccentricity
0.0036
Inclination
90.2548°
RAAN
11.7663°
Arg. of periapsis
284.4053°
True anomaly
75.70689°
Mean anomaly
75.3079°
Eccentric anomaly
75.50735°
Mean motion
3.24884 °/min
Orbital period
110.81 mins
BSTAR
0.0032765
Loading maneuver chart data...
Computing Atmospheric mass density...
Loading historical data...
Loading historical data...
Loading historical data...
Loading historical data...
Loading historical data...
Loading historical data...
Loading historical data...

Documentation

Showing up to 5 results
|